CST,Max TemperatureF,Mean TemperatureF,Min TemperatureF,Max Dew PointF,MeanDew PointF,Min DewpointF,Max Humidity, Mean Humidity, Min Humidity, Max Sea Level PressureIn, Mean Sea Level PressureIn, Min Sea Level PressureIn, Max VisibilityMiles, Mean VisibilityMiles, Min VisibilityMiles, Max Wind SpeedMPH, Mean Wind SpeedMPH, Max Gust SpeedMPH,PrecipitationIn, CloudCover, Events, WindDirDegrees
2013-11-1,42,39,36,42,38,35,99,96,93,29.75,29.50,29.26,10,8,2,9,5,16,0.04,8,Rain,309
2013-11-2,39,32,25,35,31,24,99,90,69,30.11,29.95,29.75,10,10,4,6,2,,0.00,6,,318
2013-11-3,43,32,22,33,29,22,99,82,61,30.20,30.13,30.04,10,10,2,20,5,30,0.00,3,,142
2013-11-4,43,40,37,42,37,32,97,84,70,30.11,29.98,29.89,10,9,3,20,14,30,0.16,7,Rain,178
2013-11-5,42,34,27,35,32,28,100,89,64,30.22,30.12,29.94,10,6,0,13,2,17,0.16,6,Fog-Rain-Snow,304
2013-11-6,32,27,22,32,27,20,100,91,80,30.08,29.96,29.87,10,8,3,10,6,18,0.08,5,Rain-Snow,326
2013-11-7,31,25,19,24,21,18,96,84,69,30.14,30.11,30.08,10,10,10,8,3,,0.00,4,,269
2013-11-8,35,28,22,32,26,21,99,88,71,30.16,30.00,29.65,10,6,1,20,5,28,0.07,7,Rain-Snow,158
2013-11-9,37,34,32,37,32,28,98,89,77,29.98,29.74,29.56,10,8,3,13,8,26,0.01,8,Rain-Snow,261
2013-11-10,39,36,32,30,27,24,87,72,56,30.25,30.13,30.00,10,10,10,13,8,20,0.00,6,,264
2013-11-11,32,24,14,29,13,6,87,66,46,30.55,30.29,30.02,10,10,4,21,9,29,0.00,6,,328
2013-11-12,25,17,9,9,7,4,87,65,41,30.63,30.54,30.40,10,10,10,12,5,,0.00,2,Snow,260
2013-11-13,45,30,16,28,20,9,80,65,48,30.38,30.03,29.83,10,10,10,22,11,36,0.00,0,,215
2013-11-14,38,33,28,30,28,26,97,79,70,29.83,29.78,29.75,10,10,7,9,6,,0.00,4,,211
2013-11-15,49,37,25,36,32,25,100,84,59,29.84,29.78,29.74,10,6,0,10,3,17,0.00,3,Fog,190
2013-11-16,52,44,37,50,39,32,99,88,73,29.73,29.50,29.28,10,8,2,18,10,26,0.62,7,Rain,163
2013-11-17,49,40,30,46,37,28,98,90,78,29.56,29.35,29.23,10,9,2,18,8,28,0.04,5,Rain-Snow,253
2013-11-18,30,26,23,28,19,16,88,72,65,30.20,29.93,29.57,10,10,7,17,11,30,0.00,8,Snow,299
2013-11-19,35,24,14,21,18,13,94,70,50,30.26,30.16,30.04,10,10,10,16,4,24,0.00,2,,151
2013-11-20,37,34,31,31,26,19,96,73,53,30.04,30.02,30.00,10,8,1,18,13,26,0.09,8,Snow,164
2013-11-21,32,28,23,32,29,20,100,96,87,30.35,30.16,30.04,10,3,0,12,4,22,0.02,8,Fog-Snow,309
2013-11-22,27,20,11,21,13,3,91,71,45,30.45,30.38,30.32,10,9,2,15,7,23,0.00,5,Snow,294
2013-11-23,11,6,1,2,-1,-5,82,68,47,30.63,30.57,30.43,10,10,7,15,7,22,0.00,3,,317
2013-11-24,20,8,-5,10,0,-9,85,67,50,30.59,30.30,29.92,10,10,10,21,6,29,0.00,1,,203
2013-11-25,34,27,20,25,20,10,78,71,63,29.91,29.84,29.80,10,10,7,21,12,26,0.00,8,Snow,242
2013-11-26,28,17,6,16,5,-1,87,67,49,30.20,30.06,29.91,10,9,0,18,8,28,0.00,6,Snow,308
2013-11-27,21,13,5,16,9,2,90,81,56,30.23,30.16,30.09,10,7,1,7,1,,0.00,5,Snow,302
2013-11-28,22,16,11,15,13,10,94,85,66,30.42,30.20,30.05,10,9,4,8,3,,0.00,7,Snow,287
2013-11-29,23,11,-1,17,9,-4,94,81,69,30.50,30.38,30.19,10,10,1,16,3,23,0.00,4,Snow,166
2013-11-30,34,28,23,25,22,17,89,76,66,30.18,30.04,29.97,10,10,10,10,6,16,0.00,6,,209